User: anonymous   Login
Location: Unspecified
(0.0000°N, 0.0000°E)
Time: 09:15:25
(UTC+00:00)
Language:

OBJECT V - Orbit

View from above orbital plane
View from above orbital plane
View from above satellite
View from above satellite

Ground track
Ground track

The orbit data is extracted from the following two-line orbital elements,

1 43130U 18004V   18109.88597207 +.00001130 +00000-0 +52079-4 0  9991
2 43130 097.5393 172.3827 0008679 307.6179 052.4269 15.22365148014844
Epoch (UTC): 19 April 2018 21:15:47
Eccentricity: 0.0008679
inclination: 97.5393°
perigee height: 493 km
apogee height: 504 km
right ascension of ascending node: 172.3827°
argument of perigee: 307.6179°
revolutions per day: 15.22365148
mean anomaly at epoch: 52.4269°
orbit number at epoch: 1484

The dashed part of the orbit path shows where the satellite is in the earth's shadow,  

DLR